Volver al catálogo

STARLINK-4151

ActivoComunicacionesVLEO
NORAD 53034·PAYLOAD·🇺🇸 United States

Lanzado Jul 7, 2022 desde Cape Canaveral Space Force Station

Loading…

Próximos Pases (próximas 24 horas)

TLE

ActualizadoSource: CelesTrak SupGP

Época: Sep 14, 2026, 22:10 UTC

1 53034C 22076BA  26257.92409722  .00000005  00000+0  17109-6 0  2574
2 53034  53.1579 293.7872 0001168  93.8859   6.2785 15.31671243    15

Sigue STARLINK-4151 en tiempo real con AllMySat

Download on the App Store